CAPE
0 0 0 0 0 0 0 0 0 0 0 0 0 0 0 0 0 0 0 0 0 0 0 0 0 0 0 0 0 0 0 0 0 0 0 0 0 0 0 0 0 0 0 0
0 0 0 0 0 0 0 0 0 0 0 0 0 0 0 0 0 0 0 0 0 0 0 0 0 0 0 0 0 0 0 0 0 0 0 0 0 0 0 1 0 0 0 0
0 0 0 0 0 0 0 0 0 0 0 0 0 0 0 0 0 0 0 0 0 0 0 0 0 0 0 0 0 0 0 0 0 0 0 0 0 0 0 0 0 0 0 0
0 0 0 0 0 0 0 0 0 0 0 0 0 0 0 0 0 0 0 0 0 0 0 0 0 0 0 0 0 0 0 0 0 0 0 0 0 0 0 0 0 0 0 0
0 0 0 0 0 0 0 0 0 0 0 0 0 0 0 0 0 0 0 0 0 0 0 0 0 0 0 0 0 0 0 0 0 0 0 0 0 0 0 0 0 0 0 0
0 0 0 0 0 0 0 0 0 0 0 0 0 0 0 0 0 0 0 0 0 0 0 0 0 0 0 0 0 0 0 0 0 0 0 0 0 0 0 0 0 0 0 0
0 0 0 0 0 0 0 0 0 0 0 0 0 0 0 0 0 0 0 0 0 0 0 0 0 0 0 0 0 0 0 0 0 0 0 0 0 0 0 0 0 0 0 0
0 0 0 0 0 0 0 0 0 0 0 0 0 0 0 0 0 0 0 0 0 0 0 0 0 0 0 0 0 0 0 0 0 0 0 0 0 0 0 0 0 0 0 0
0 0 0 0 0 0 0 0 0 0 0 0 0 0 0 0 0 0 0 0 0 0 0 0 0 0 0 0 0 0 0 0 0 0 0 0 0 0 0 0 0 0 0 0
0 0 0 0 0 0 0 0 0 0 3 0 0 0 0 0 0 0 0 0 0 0 0 0 0 0 0 0 0 0 0 0 0 0 0 0 0 0 0 0 0 0 0 0
0 0 0 0 0 0 0 0 0 0 3 1 0 0 0 0 0 0 0 0 0 0 0 0 0 0 0 0 0 0 0 0 0 0 0 0 0 0 0 0 0 0 0 0
0 0 0 0 0 0 0 0 1 28 0 17 18 5 0 0 0 0 0 0 0 0 0 0 0 0 0 0 0 0 0 0 0 0 0 0 0 0 0 0 0 0 0 0
0 1 0 0 0 0 0 0 0 0 0 0 9 0 0 0 0 0 0 0 0 0 0 0 0 0 0 0 0 0 0 0 0 0 0 0 0 0 0 0 0 0 0 0
0 2 0 0 0 0 0 0 0 0 2 0 0 0 0 0 0 0 0 0 0 0 0 0 0 0 0 0 0 0 0 0 0 0 0 0 0 0 0 0 0 0 0 0
0 0 0 0 0 0 0 0 0 0 0 7 0 0 0 0 0 0 0 0 0 0 0 0 0 0 0 0 0 0 0 0 0 0 0 0 0 0 0 0 0 0 0 0
2 0 0 0 0 0 0 0 0 0 0 0 0 0 0 0 0 0 0 0 0 0 0 0 0 0 0 0 0 0 0 0 0 0 0 0 0 0 0 0 0 0 0 0
0 0 0 0 0 0 0 0 0 0 0 0 0 0 0 0 0 0 0 0 0 0 0 0 0 0 0 0 0 0 0 0 0 0 0 0 0 0 0 0 0 0 0 0
0 0 0 0 0 0 0 0 0 0 0 0 0 0 0 0 0 0 0 0 0 0 0 0 0 0 0 0 0 0 0 0 0 0 0 0 0 0 0 0 0 0 0 0
0 0 0 0 0 0 0 0 0 0 0 0 0 0 0 0 0 0 0 0 0 0 0 0 0 0 0 0 0 0 0 0 0 0 0 0 0 0 0 0 0 0 0 0
0 0 0 0 0 0 0 0 0 0 0 0 0 0 0 0 0 0 0 0 0 0 0 0 0 0 0 0 0 0 0 0 0 0 0 0 0 0 0 0 0 0 0 0
0 0 0 0 0 0 0 0 0 0 0 0 0 0 0 0 0 0 0 0 0 0 0 0 0 0 0 0 0 0 0 0 0 0 0 0 0 0 0 0 0 0 0 0
0 0 0 0 0 0 0 0 0 0 0 0 0 0 0 0 0 0 0 0 0 0 0 0 0 0 0 0 0 0 0 0 0 0 0 0 0 0 0 0 0 0 0 0
0 0 0 0 0 0 0 0 0 0 0 0 0 0 0 0 0 0 0 0 0 0 0 0 0 0 0 0 0 0 0 0 0 0 0 0 0 0 0 0 0 0 0 0
0 0 0 0 0 0 0 0 0 0 0 0 0 0 0 0 0 0 0 0 0 0 0 0 0 0 0 0 0 0 0 0 0 0 0 0 0 0 0 0 0 0 0 0
0 0 0 0 0 0 0 0 0 0 0 0 0 0 0 0 0 0 0 0 0 0 0 0 0 0 0 0 0 0 0 0 0 0 0 0 0 0 0 0 0 0 0 0
0 0 0 0 0 0 0 0 0 0 0 0 0 0 0 0 0 0 0 0 0 0 0 0 0 0 0 0 0 0 0 0 0 0 0 0 0 0 0 0 0 0 0 0
CIN
-0 -0 -0 -0 -0 -0 -0 -0 -0 -0 -0 -0 -0 -0 -0 -0 -0 -0 -0 -0 -0 -0 -0 -0 -0 -0 -0 -0 -0 -0 -0 -0 -0 -0 -0 -0 -0 -0 -8 -0 -0 -8 -0 -0
-0 -0 -0 -0 -0 -0 -0 -0 -0 -0 -0 -0 -0 -0 -0 -0 -0 -0 -0 -0 -0 -0 -0 -0 -0 -0 -0 -0 -0 -0 -0 -0 -0 -0 -0 -0 -0 -0 -3 -9 -12 -0 -0 -0
-0 -0 -0 -0 -0 -0 -0 -0 -0 -0 -0 -0 -0 -0 -0 -0 -0 -0 -0 -0 -0 -0 -0 -0 -0 -0 -0 -0 -0 -0 -0 -0 -0 -0 -0 -0 -0 -0 -0 -0 -0 -0 -2 -0
-0 -0 -0 -0 -0 -0 -0 -0 -0 -0 -0 -0 -0 -0 -0 -0 -0 -0 -0 -0 -0 -0 -0 -0 -0 -0 -0 -0 -0 -0 -0 -0 -0 -0 -0 -0 -0 -0 -0 -0 -0 -0 -0 -0
-0 -0 -0 -0 -0 -0 -0 -0 -0 -0 -0 -0 -0 -0 -0 -0 -0 -0 -0 -0 -0 -0 -0 -0 -0 -0 -0 -0 -0 -0 -0 -0 -0 -0 -0 -0 -0 -0 -0 -0 -0 -0 -0 -0
-0 -0 -0 -0 -0 -0 -0 -0 -0 -0 -0 -0 -0 -0 -0 -0 -0 -0 -0 -0 -0 -0 -0 -0 -0 -0 -0 -0 -0 -0 -0 -0 -0 -0 -0 -0 -0 -0 -0 -0 -0 -0 -0 -0
-0 -0 -0 -0 -0 -0 -0 -0 -0 -0 -0 -0 -0 -0 -0 -0 -0 -0 -0 -0 -0 -0 -0 -0 -0 -0 -0 -0 -0 -0 -0 -0 -0 -0 -0 -0 -0 -0 -0 -0 -0 -0 -0 -0
-0 -0 -0 -0 -0 -0 -0 -0 -0 -0 -0 -0 -0 -0 -0 -0 -0 -0 -0 -0 -0 -0 -0 -0 -0 -0 -0 -0 -0 -0 -0 -0 -0 -0 -0 -0 -0 -0 -0 -0 -0 -0 -0 -0
-0 -0 -0 -0 -0 -0 -0 -0 -0 -0 -0 -0 -0 -0 -0 -0 -0 -0 -0 -0 -0 -0 -0 -0 -0 -0 -0 -0 -0 -0 -0 -0 -0 -0 -0 -0 -0 -0 -0 -0 -0 -0 -0 -0
-0 -0 -0 -0 -0 -0 -0 -0 -0 -0 -1 -0 -0 -0 -0 -0 -0 -0 -0 -0 -0 -0 -0 -0 -0 -0 -0 -0 -0 -0 -0 -0 -0 -0 -0 -0 -0 -0 -0 -0 -0 -0 -0 -0
-0 -0 -0 -0 -0 -0 -0 -0 -0 -0 -0 -2 -0 -0 -0 -0 -0 -0 -0 -0 -0 -0 -0 -0 -0 -0 -0 -0 -0 -0 -0 -0 -0 -0 -0 -0 -0 -0 -0 -0 -0 -0 -0 -0
-0 -0 -0 -0 -0 -0 -0 -0 -5 -2 -0 -3 -4 -3 -0 -0 -0 -0 -0 -0 -0 -0 -0 -0 -0 -0 -0 -0 -0 -0 -0 -0 -0 -0 -0 -0 -0 -0 -0 -0 -0 -0 -0 -0
-0 -2 -0 -0 -0 -0 -0 -0 -0 -0 -0 -1 -1 -1 -0 -0 -0 -0 -0 -0 -0 -0 -0 -0 -0 -0 -0 -0 -0 -0 -0 -0 -0 -0 -0 -0 -0 -0 -0 -0 -0 -0 -0 -0
-0 -8 -0 -0 -0 -0 -0 -0 -0 -0 -0 -0 -0 -0 -0 -0 -0 -0 -0 -0 -0 -0 -0 -0 -0 -0 -0 -0 -0 -0 -0 -0 -0 -0 -0 -0 -0 -0 -0 -0 -0 -0 -0 -0
-0 -0 -0 -0 -0 -0 -0 -0 -0 -0 -0 -1 -0 -0 -0 -0 -0 -0 -0 -0 -0 -0 -0 -0 -0 -0 -0 -0 -0 -0 -0 -0 -0 -0 -0 -0 -0 -0 -0 -0 -0 -0 -0 -0
-0 -0 -0 -0 -0 -0 -0 -0 -0 -0 -0 -0 -0 -0 -0 -0 -0 -0 -0 -0 -0 -0 -0 -0 -0 -0 -0 -0 -0 -0 -0 -0 -0 -0 -0 -0 -0 -0 -0 -0 -0 -0 -0 -0
-0 -0 -0 -0 -0 -0 -0 -0 -0 -0 -0 -0 -0 -0 -0 -0 -0 -0 -0 -0 -0 -0 -0 -0 -0 -0 -0 -0 -0 -0 -0 -0 -0 -0 -0 -0 -0 -0 -0 -0 -0 -0 -0 -0
-0 -0 -0 -0 -0 -0 -0 -0 -0 -0 -0 -0 -0 -0 -0 -0 -0 -0 -0 -0 -0 -0 -0 -0 -0 -0 -0 -0 -0 -0 -0 -0 -0 -0 -0 -0 -0 -0 -0 -0 -0 -0 -0 -0
-0 -0 -0 -0 -0 -0 -0 -0 -0 -0 -0 -0 -0 -0 -0 -0 -0 -0 -0 -0 -0 -0 -0 -0 -0 -0 -0 -0 -0 -0 -0 -0 -0 -0 -0 -0 -0 -0 -0 -0 -0 -0 -0 -0
-0 -0 -0 -0 -0 -0 -0 -0 -0 -0 -0 -0 -0 -0 -0 -0 -0 -0 -0 -0 -0 -0 -0 -0 -0 -0 -0 -0 -0 -0 -0 -0 -0 -0 -0 -0 -0 -0 -0 -0 -0 -0 -0 -0
-0 -0 -0 -0 -0 -0 -0 -0 -0 -0 -0 -0 -0 -0 -0 -0 -0 -0 -0 -0 -0 -0 -0 -0 -0 -0 -0 -0 -0 -0 -0 -0 -0 -0 -0 -0 -0 -0 -0 -0 -0 -0 -0 -0
-0 -0 -0 -0 -0 -0 -0 -0 -0 -0 -0 -0 -0 -0 -0 -0 -0 -0 -0 -0 -0 -0 -0 -0 -0 -0 -0 -0 -0 -0 -0 -0 -0 -0 -0 -0 -0 -0 -0 -0 -0 -0 -0 -0
-0 -0 -0 -0 -0 -0 -0 -0 -0 -0 -0 -0 -0 -0 -0 -0 -0 -0 -0 -0 -0 -0 -0 -0 -0 -0 -0 -0 -0 -0 -0 -0 -0 -0 -0 -0 -0 -0 -0 -0 -0 -0 -0 -0
-0 -0 -0 -0 -0 -0 -0 -0 -0 -0 -0 -0 -0 -0 -0 -0 -0 -0 -0 -0 -0 -0 -0 -0 -0 -0 -0 -0 -0 -0 -0 -0 -0 -0 -0 -0 -0 -0 -0 -0 -0 -0 -0 -0
-0 -0 -0 -0 -0 -0 -0 -0 -0 -0 -0 -0 -0 -0 -0 -0 -0 -0 -0 -0 -0 -0 -0 -0 -0 -0 -0 -0 -0 -0 -0 -0 -0 -0 -0 -0 -0 -0 -0 -0 -0 -0 -0 -0
-0 -0 -0 -0 -0 -0 -0 -0 -0 -0 -0 -0 -0 -0 -0 -0 -0 -0 -0 -0 -0 -0 -0 -0 -0 -0 -0 -0 -0 -0 -0 -0 -0 -0 -0 -0 -0 -0 -0 -0 -0 -0 -0 -0
Wind_Speed
18 21 23 23 21 24 33 32 34 33 35 36 34 35 34 35 35 35 31 24 20 21 24 26 27 27 27 27 26 25 25 25 22 22 21 22 23 23 21 20 20 19 18 18
23 28 24 25 28 32 34 38 38 34 30 31 34 36 36 35 29 28 23 20 22 23 24 24 25 27 27 27 27 27 26 25 25 23 21 21 21 22 22 22 22 23 21 18
29 28 30 31 32 35 33 35 34 36 35 32 36 36 34 32 33 22 18 19 21 21 22 23 25 26 27 27 28 28 28 26 25 25 23 22 22 23 25 26 26 25 25 25
26 27 29 28 28 27 31 28 31 34 36 36 33 49 36 36 25 16 19 19 19 21 21 22 24 25 26 26 27 28 28 28 27 26 25 25 24 25 26 26 25 27 25 27
22 20 20 21 23 24 28 29 32 34 38 42 37 38 37 30 19 21 19 18 19 20 20 21 22 24 25 26 27 28 29 29 29 28 26 26 26 26 27 27 27 29 27 25
20 19 20 21 24 24 28 33 34 33 32 44 34 33 36 29 24 22 19 19 20 20 20 19 20 22 24 27 28 29 29 30 30 29 29 28 27 28 28 28 29 30 29 28
22 22 22 21 27 23 25 31 42 43 39 46 33 39 35 30 27 22 21 22 22 21 21 21 23 25 27 29 29 29 30 30 29 29 30 30 30 29 30 31 31 31 31 30
33 36 22 19 25 29 30 31 37 49 51 52 45 46 39 28 25 22 22 22 22 23 23 24 25 26 27 29 30 30 31 31 31 31 31 31 31 31 32 33 32 33 33 34
34 36 21 25 25 25 30 34 29 37 39 46 44 41 40 28 26 23 25 25 26 25 24 24 25 28 29 30 30 29 29 30 31 31 31 32 33 33 33 34 34 35 34 34
29 41 31 25 25 26 27 27 37 35 46 51 43 45 45 41 33 26 26 26 24 24 25 27 29 30 29 30 28 28 30 32 33 33 33 34 34 34 34 34 35 36 37 37
26 31 34 35 32 34 32 34 32 34 36 47 54 49 35 33 27 26 27 27 27 29 30 30 31 31 30 30 31 32 32 33 35 35 35 35 36 36 36 36 36 37 38 39
24 29 39 39 35 32 33 35 35 43 49 43 47 47 29 28 28 28 30 30 29 30 32 32 32 32 34 33 33 35 35 35 35 35 36 37 37 37 38 39 40 40 40 40
25 31 42 45 36 27 30 29 31 35 38 47 52 49 30 32 32 32 34 34 34 32 33 34 35 35 35 36 36 37 38 38 37 38 38 39 40 41 42 42 43 44 44 43
24 32 37 45 43 41 43 45 45 43 49 53 55 57 50 47 42 43 42 38 36 36 36 37 37 37 38 38 39 41 41 41 41 41 43 45 45 46 47 46 46 47 48 48
27 40 37 40 41 44 46 48 50 50 50 55 60 59 56 54 50 45 41 37 35 35 35 35 36 37 37 39 40 40 41 43 43 44 47 50 51 52 51 51 50 49 49 50
25 39 38 45 40 43 51 52 51 52 53 54 54 58 48 39 37 39 37 36 37 38 36 35 34 36 37 39 40 43 45 45 44 47 51 53 54 55 55 56 56 56 55 54
32 36 40 52 41 43 54 51 49 49 46 48 55 50 42 44 40 37 37 38 39 38 37 36 36 35 36 38 40 44 45 45 48 51 54 55 55 56 56 56 57 59 60 60
35 35 37 49 45 60 50 37 39 45 45 44 44 41 38 37 35 35 34 35 34 34 34 35 36 34 36 38 42 42 43 45 48 51 53 54 55 57 58 59 61 63 62 64
31 33 41 47 51 51 53 47 47 47 51 41 41 36 31 32 35 35 29 28 30 32 33 34 33 33 36 39 41 43 46 48 50 52 53 54 56 59 61 63 64 65 65 65
26 28 35 41 51 59 48 37 31 35 55 38 35 31 32 34 42 39 30 32 33 33 32 31 33 34 37 38 40 45 48 49 52 53 54 56 57 60 63 63 64 64 64 66
34 35 41 45 50 48 39 35 31 47 50 28 26 27 31 36 34 35 33 33 32 30 29 31 33 36 37 39 43 47 49 51 51 54 56 58 57 59 60 62 61 63 64 64
36 40 43 42 49 54 31 31 37 33 28 24 25 29 35 38 36 34 33 31 28 28 31 33 37 38 38 40 43 48 51 51 54 56 57 57 57 56 57 59 59 58 57 58
41 36 41 37 38 31 29 31 29 30 36 34 32 33 35 33 33 32 30 27 28 30 32 34 36 39 39 40 42 49 52 54 57 57 57 56 54 54 54 55 53 50 48 50
37 34 40 40 38 38 38 33 33 35 34 31 31 34 32 32 31 31 30 29 31 32 33 33 36 39 41 40 44 47 51 52 53 54 54 54 54 55 52 46 43 43 44 45
37 35 39 41 37 37 39 35 35 33 30 31 30 29 31 30 31 29 29 30 31 31 31 33 36 38 40 43 47 48 49 48 49 49 50 52 53 53 47 39 37 38 37 39
36 39 41 45 35 37 36 33 30 30 30 32 34 33 31 30 30 29 29 29 29 30 31 33 34 36 40 44 46 47 45 44 44 47 48 51 52 48 40 37 33 31 34 37
Wind_Direction
312 309 304 306 303 305 309 310 310 313 315 314 313 314 318 321 321 317 320 335 341 344 342 344 343 343 344 346 345 339 334 327 329 322 313 307 301 303 299 298 294 290 285 276
309 302 303 305 305 306 307 307 309 313 318 318 316 314 316 320 318 321 327 333 332 335 340 344 346 347 345 345 346 343 342 338 331 328 324 321 318 310 308 303 298 299 295 285
293 301 311 308 304 303 303 305 310 310 315 317 316 312 318 321 320 325 336 341 339 337 337 341 343 346 349 348 348 348 346 345 338 330 328 324 320 317 310 305 304 302 297 296
299 305 303 305 306 308 304 312 311 311 313 313 323 309 315 320 323 335 338 341 343 342 345 344 345 347 347 347 351 352 352 348 344 338 333 327 323 317 315 311 312 307 304 298
309 317 318 313 313 316 311 315 312 310 307 306 310 308 318 319 314 317 332 343 349 352 352 353 355 354 354 353 353 350 351 350 347 344 338 329 324 322 321 321 317 313 309 305
304 318 317 315 314 311 314 311 309 307 308 301 308 307 313 320 318 316 326 333 337 342 345 351 353 353 349 347 348 346 344 343 341 341 340 335 332 329 327 323 322 318 313 310
314 305 312 314 311 314 317 315 307 301 298 298 315 308 306 313 317 309 312 321 327 331 333 336 336 340 339 339 340 340 340 339 337 337 335 332 331 331 329 327 323 320 317 315
301 302 311 319 313 310 310 310 303 298 298 300 306 300 305 311 318 320 320 321 323 325 326 327 329 333 333 332 333 331 332 331 331 331 330 328 327 328 332 329 324 320 316 312
301 300 315 313 313 313 313 308 312 304 303 301 302 303 305 309 315 317 315 318 319 321 324 325 326 327 329 330 329 331 331 330 329 329 327 326 325 325 326 326 326 323 320 317
306 297 305 309 314 312 308 312 305 307 301 298 302 303 302 310 308 315 316 317 320 321 321 321 323 325 328 329 328 328 329 328 327 327 325 323 324 325 325 324 322 320 318 318
308 301 298 306 306 307 309 305 303 304 300 300 299 299 315 316 319 316 316 314 314 315 316 316 317 321 323 324 323 322 322 323 323 324 322 320 319 321 320 320 321 321 319 317
307 304 297 298 305 306 304 303 301 297 298 298 299 298 314 319 319 318 314 311 310 311 311 313 315 318 318 318 320 318 319 320 323 324 321 317 317 317 316 318 319 318 317 317
304 300 298 301 305 310 306 310 309 308 305 296 297 297 313 311 311 313 310 308 306 307 309 311 313 315 315 317 317 317 317 319 322 319 316 314 313 312 313 314 315 314 314 314
307 295 294 292 296 304 302 301 301 301 298 298 293 299 300 302 305 307 304 302 303 304 305 305 307 309 312 312 310 313 314 316 316 317 315 313 311 308 309 312 311 310 310 309
299 293 295 294 297 298 299 299 298 297 297 295 297 297 299 302 303 304 305 306 304 304 304 305 307 308 309 310 309 312 312 313 313 312 310 311 311 309 310 310 309 309 308 306
299 297 298 295 299 298 296 296 298 298 297 296 297 297 304 308 309 307 307 306 306 307 306 306 308 309 309 310 309 310 309 308 311 310 310 310 309 309 308 308 307 306 305 304
298 298 299 295 302 302 297 298 299 300 299 300 299 303 308 306 307 308 308 308 307 307 309 309 307 309 310 313 315 313 312 312 310 308 309 309 308 307 307 306 305 304 303 301
295 295 297 298 302 295 302 308 310 305 305 306 307 308 309 309 311 312 313 310 310 311 312 312 313 313 314 315 315 316 316 316 314 312 311 311 310 308 307 306 304 303 302 299
284 292 297 297 296 300 302 305 304 304 303 308 309 309 310 314 314 312 318 324 318 316 315 315 318 319 319 318 318 318 317 317 316 315 314 313 313 310 309 307 305 304 302 300
294 288 292 297 299 298 307 314 317 315 301 311 309 309 311 314 308 311 319 318 316 316 316 317 319 321 321 321 321 320 319 319 317 317 317 316 315 313 310 309 308 306 304 301
297 297 290 294 296 300 311 314 317 303 307 316 315 312 313 312 311 314 315 315 316 317 319 321 322 321 322 322 322 319 319 319 320 320 318 317 316 315 313 311 310 308 305 303
295 299 299 300 298 299 314 316 307 313 319 316 313 312 311 312 313 314 313 314 318 320 320 321 320 321 323 325 324 321 321 323 322 321 320 320 319 318 317 314 313 311 309 307
292 294 300 298 303 312 313 309 311 311 308 307 306 309 311 311 312 314 313 314 317 319 320 321 321 321 324 326 327 323 324 324 323 323 322 322 323 322 321 318 317 316 315 313
297 297 296 299 300 300 303 302 306 308 308 310 311 311 313 312 312 311 313 313 315 318 319 322 322 323 324 327 328 327 326 327 326 325 326 326 326 325 324 323 322 321 320 318
292 303 299 296 300 301 302 302 305 306 307 308 309 310 311 310 311 311 312 314 316 318 320 322 323 324 326 328 328 329 329 330 329 329 330 330 329 330 330 329 327 325 324 323
287 287 291 295 300 301 302 306 309 308 308 309 310 310 311 311 310 312 312 315 316 318 321 322 325 326 327 329 330 331 333 333 333 333 333 333 333 337 337 335 334 332 329 328